CAPE
1935 2105 2052 2085 2077 1894 2139 2357 2305 2346 2181 2299 2478 2415 2445 2854 2918 2936 2840 2667 2146 1744 1295 729 598 554 786 928 1086 1333 1475 1536 1616 1706 1875 2002 2069 2411 2280 2159 2085 2024 1955 2021 1885 1867 1714 1813 1774 1899 1796 1829 1816 1905 1926 1828 1868 1874 1861 1770 1653 1678 1597 1747 2043 1904 1860 2109 1832 1917 1632 1701 1509 1580 1422 1365 1251 1243 1312 1340 1325 1381 1162 1252 1322
1433 1717 1602 1603 1583 1707 1888 2268 2448 2347 2537 2298 2187 2775 2988 2879 2671 2902 2705 2531 1555 816 562 523 577 586 585 746 1002 1167 1277 1404 1483 1608 1748 1865 1873 2460 2217 2100 2052 2024 1963 1946 1844 1772 1807 1817 1803 1862 1681 1845 1726 1814 1896 1872 1919 1976 1821 1774 1802 1796 1654 1855 2035 1947 1884 1852 1945 1706 1688 1604 1629 1547 1444 1546 1479 1343 1560 1524 1481 1530 1502 1417 1303
1397 1574 1618 1636 1491 1635 2206 2293 1770 1918 2116 2377 2704 2728 2659 2638 2917 2778 1248 1509 1580 1674 1110 616 568 539 744 726 792 1145 1125 1205 1244 1472 1642 1737 1824 2100 2356 2218 2184 2112 2050 1955 1865 1813 1839 1813 1769 1876 1872 1873 1898 1928 1746 1939 1930 1840 1899 1901 1930 1921 1792 1928 1974 1794 1974 1969 1866 1817 1773 1615 1741 1812 1831 1786 1737 1648 1598 1638 1693 1709 1606 1534 1522
1030 1452 1650 1339 1399 1502 2097 1752 1726 1784 1776 1770 2026 2166 2455 2519 3286 3674 3153 3036 2564 2547 1319 735 775 734 777 911 910 1012 1185 1181 1176 1295 1452 1608 1791 2005 2141 2319 2320 2255 2229 2040 1974 1988 1974 2040 2016 1944 2046 1991 1958 1919 1898 1889 2080 1932 1985 1984 2108 2099 2100 1986 2026 2133 2138 2116 2134 2096 2057 2026 1976 1946 2045 2023 1923 1856 1814 1824 1811 1791 1722 1590 1585
789 1329 1853 1165 1484 1552 1682 1863 1606 1350 1624 1893 2078 2256 2464 2898 2770 3038 2893 2982 2338 1555 2134 917 821 750 778 989 928 882 1078 1213 1193 1116 1159 1375 1587 1897 1966 2211 2257 2254 2304 2274 2269 2259 2254 2272 2151 2208 2222 2125 2166 2195 2103 2136 2068 2115 2212 2172 2110 2124 2172 2160 2200 2229 2300 2278 2210 2255 2276 2221 2214 2188 2185 2188 2188 2108 2015 1970 2013 1959 1780 1635 1615
987 1351 1227 1169 1094 1101 1336 1678 1611 1266 1483 1970 2168 2546 3538 2543 2177 2093 2661 2080 1449 1512 1124 961 830 818 828 940 948 932 838 1102 1139 1059 1140 1223 1233 1574 1849 1929 2028 1948 2166 2308 2288 2340 2410 2361 2348 2315 2303 2298 2325 2264 2335 2362 2406 2421 2368 2424 2442 2439 2456 2497 2471 2368 2422 2494 2428 2464 2511 2475 2456 2449 2386 2357 2389 2348 2328 2270 2187 2172 2069 1909 1822
1080 1152 1263 1227 1320 1144 1368 1417 1488 1545 1654 2049 2608 2703 3281 2987 2899 2261 2025 1246 1577 1526 1616 1391 794 847 869 945 904 1078 742 652 1092 1301 1292 1282 1216 1254 1321 1688 1811 1897 2082 2276 2588 2504 2412 2365 2461 2504 2595 2616 2622 2638 2599 2553 2527 2466 2499 2588 2588 2624 2626 2715 2659 2582 2676 2718 2717 2734 2702 2679 2681 2709 2683 2690 2659 2642 2665 2656 2611 2509 2496 2353 2278
1298 1114 834 1024 1420 1197 1336 1564 1994 2005 2505 3395 3607 2672 2854 2401 3354 2456 1802 1479 1526 1477 1624 1812 856 1243 1317 1117 798 1050 708 644 850 1346 1560 1543 1437 1431 1422 1634 1772 1852 2480 2161 2239 2448 2709 2677 2748 2849 2880 2783 2864 2857 2877 2868 2741 2722 2728 2817 2671 2716 2861 2819 2803 2807 2810 2805 2762 2719 2785 2859 2868 2855 2899 2906 2943 2934 2916 2920 2900 2855 2778 2702 2611
1252 1137 916 1201 1304 1591 1969 2369 2773 2733 3226 3691 3286 3483 3254 3072 2075 3191 2862 2986 1753 1351 1408 1525 930 768 779 977 966 1550 890 830 670 828 1363 1754 1835 1869 1850 1910 1996 2625 2371 2002 1990 2091 2644 3037 2995 3010 2985 3054 2991 2977 2964 2895 2909 2932 2902 2823 2841 2819 2787 2970 3049 3059 3057 2979 2974 2989 2996 3084 3116 3085 3101 3191 3251 3287 3280 3307 3220 3144 3013 2939 2895
972 1149 1194 1392 1694 2139 2725 2924 3730 4067 3767 3621 3179 2923 2834 3162 3072 3536 3366 2195 1636 1376 1223 1184 752 772 924 977 1041 975 927 837 1044 1549 903 1344 1680 1909 2019 2229 2347 2435 2464 1998 1759 1732 1841 2745 3307 3162 3130 3072 3126 3036 2985 2889 2853 2865 2940 2940 2809 2802 2878 3016 3082 3029 3018 3213 3316 3297 3284 3284 3373 3455 3473 3482 3512 3561 3600 3551 3498 3464 3399 3318 3213
1326 1413 1657 1862 2097 2379 2825 3090 3646 3448 3572 3519 2846 2416 2560 2468 2998 2353 3792 3154 1793 1843 799 799 668 623 750 877 1318 956 946 785 1393 1248 799 841 1210 1360 1626 1988 2453 2655 2761 2355 2046 1834 1838 1662 2194 2721 2901 3356 3274 3265 3270 3054 3022 3044 3098 2987 2898 3073 3218 3230 3280 3368 3413 3363 3244 3395 3537 3582 3631 3722 3786 3808 3799 3776 3711 3700 3702 3701 3560 3499 3471
1796 1960 2803 2919 2642 2771 3102 3256 3046 3047 2802 2444 3282 2486 2166 2450 2918 2162 2802 2677 3690 2021 1528 1184 750 571 1090 736 799 1353 643 859 798 1094 870 620 922 990 964 1280 1860 2294 2734 2570 2270 2118 1854 1271 1949 1905 2117 2372 3209 3597 3490 3436 3520 3393 3159 3219 3204 3248 3394 3492 3468 3435 3603 3624 3569 3669 3727 3758 3872 3950 3988 3993 3938 3843 3797 3752 3736 3730 3693 3689 3689
3328 3201 3422 4177 3256 3054 3466 3251 3162 3161 2538 2648 3489 3380 3432 3127 2725 3285 2474 2308 2524 1917 1156 546 522 660 904 654 699 933 1439 1596 718 802 790 499 441 729 486 592 628 1114 2250 2403 2361 2262 1514 1543 1625 1815 2151 2112 2283 3348 3663 3869 3799 3782 3959 3880 3816 3629 3566 3589 3657 3623 3794 3809 3940 3887 3929 3937 4018 4083 4045 4021 3973 3951 3921 3866 3828 3808 3825 3801 3743
3278 3060 3451 3509 3375 3192 3382 3309 3252 2772 2534 3106 3239 3536 3584 2337 2268 1990 2580 2766 2624 2116 1607 1580 876 504 671 778 640 688 1384 1824 764 671 628 464 373 564 590 534 486 474 900 2193 2381 2123 2011 2110 2177 1952 2130 2266 2082 2062 2503 3120 3810 4026 4212 4338 4005 4107 4080 4264 4177 4172 4214 4181 4266 4330 4289 4141 4192 4298 4239 4130 4009 3984 3942 3856 3797 3800 3819 3798 3736
3408 3529 3191 3765 3829 3139 2922 3490 3918 3532 3489 3125 3142 3226 2775 2917 2980 2778 2453 2938 3308 1840 1054 1168 1280 862 1526 745 602 711 790 721 707 740 596 153 352 464 634 438 458 548 693 1510 1977 1986 2124 2094 2462 2635 2567 2776 2641 2182 2465 2680 2739 3284 3484 3774 3894 4217 4203 4149 4349 4252 4378 4341 4322 4142 4008 4015 4037 3921 3915 3891 3903 3948 3930 3853 3761 3728 3696 3687 3672
3382 3235 3384 3602 3284 3258 3606 3567 4232 4114 3371 3012 3064 3121 3204 3213 3016 3260 2986 2249 1309 1484 1954 1496 1195 806 534 568 319 701 503 562 731 826 391 189 32 319 372 360 528 733 545 727 912 1316 1303 1524 2149 2782 2897 3064 3051 2617 2798 2847 3046 4128 4636 4287 3353 3217 3836 4316 4293 4098 3947 3838 3924 3881 3789 3726 3711 3713 3773 3905 3975 3971 3901 3832 3745 3644 3570 3457 3491
3113 2975 3222 3048 3466 3506 3175 3103 3808 3486 3430 3852 3118 2873 2619 2849 3150 3495 2566 2781 2288 2140 2094 1151 1186 1703 2263 1969 331 660 947 558 651 1003 1096 371 159 321 491 71 138 803 762 741 647 984 1178 1444 1542 1831 1592 1819 2148 3022 3306 3551 3774 4506 5123 5766 5044 3473 3612 3673 3970 3761 3798 3650 3431 3460 3538 3612 3723 3844 3867 3807 3740 3844 3805 3611 3367 3265 3282 3216 3125
2979 3143 3446 3419 3134 2972 3605 3363 3557 3778 3738 3847 3522 3061 2621 2300 2935 2533 2769 3227 2718 3094 3028 1832 1071 1610 2194 1461 863 896 815 837 868 231 446 1612 200 126 183 6 101 636 665 766 601 900 1232 802 1222 1646 1864 2153 2190 2126 2129 2564 4191 4267 4792 4215 5183 4596 3852 3497 4034 4024 3180 3081 3207 3306 3603 3845 3840 3766 3700 3615 3627 3474 3201 3128 3099 3116 3201 3029 2821
2766 2904 3560 3519 3209 3055 3543 3326 3459 3605 3900 3022 4096 2735 2328 2512 3066 2927 2806 4599 3577 2904 2722 2529 2390 2158 2214 1324 2306 1804 1562 1176 500 2152 301 164 1263 30 20 6 132 536 592 682 577 499 1050 1259 1540 1635 2027 2174 2278 2151 2164 2415 4144 3394 3896 4916 5226 4816 4318 4168 3295 3137 2897 3031 3383 3664 3745 3788 3788 3694 3543 3423 3359 3273 3064 3056 3060 3137 2975 2802 2560
2649 3036 3208 3618 3519 3498 3679 3556 3322 3014 3960 3680 2314 2822 3063 3433 3727 3859 3952 3579 3029 2416 3290 3523 2354 2224 3324 1581 2154 1313 901 1198 872 754 576 619 425 140 45 0 1 170 500 479 518 543 1079 1534 1751 1888 1957 1839 2237 2351 2296 2482 2814 3108 3358 3158 3619 3247 2226 2208 2580 2689 2802 3384 3639 3566 3657 3712 3653 3491 3248 3244 3216 3226 3079 3030 3053 2761 2336 2075 1685
2737 2912 3208 3382 3788 3278 3326 2894 2708 2808 4332 2688 2825 3316 3193 3137 3567 3570 3278 3714 3352 2944 3302 3064 3247 2132 2538 1539 2328 2012 1703 1205 409 739 1647 823 1039 292 109 62 0 543 618 505 576 525 912 1182 1476 1820 2026 2032 2199 1946 2685 4234 3837 3471 3347 2972 2452 2432 2447 2576 2416 2782 3333 3159 3411 3495 3552 3606 3491 3146 3194 3264 3252 3114 3037 2777 2408 2150 1951 1676 1403
2870 3121 3244 3265 3507 3555 3458 2746 2507 3253 2491 2526 2686 2559 3042 3194 3112 2980 3626 3825 4328 4066 2770 3147 3155 3362 2587 2137 1946 1957 1786 1756 808 972 1127 724 493 515 865 168 230 543 838 538 550 764 607 747 2127 2034 1932 1632 1856 2476 3425 3253 2292 2100 2360 2448 2412 2634 3024 3375 2654 3194 3000 2905 3075 3190 3404 3527 3144 3094 3181 3136 2835 2652 2431 2206 1960 1887 1576 1167 737
3034 3231 3232 3348 3474 3571 3288 2973 3136 3061 2758 3050 2535 2719 3214 3050 3440 3887 3375 3226 3671 3931 3698 4476 3337 2735 3073 3242 2069 1942 1207 1711 825 1032 1474 1122 1020 1213 1169 878 102 309 490 686 731 638 515 563 804 1702 1595 2618 3333 2564 2246 2014 2380 3076 3096 2678 2126 2540 3423 3533 2979 2849 2895 2522 2682 2807 3187 3343 2911 2986 3070 2526 2448 2320 2079 1751 1650 1363 866 446 275
2793 3154 3332 3221 3663 3569 3302 3220 3131 2792 2499 2953 3098 2904 2752 3029 3064 3526 3099 3204 3558 3449 3274 2946 3440 3392 3128 2343 1518 1798 1968 1180 1244 1493 761 1216 818 1101 1003 894 1057 546 489 171 381 589 600 653 1088 1804 2028 2638 2778 3199 3010 2508 2676 3136 3090 2586 3177 3550 3770 3742 3243 2852 2606 2280 2133 2207 2844 2999 2604 2484 2559 2003 1926 1924 1672 1379 1120 729 286 127 32
2653 2748 3083 2930 3479 3093 3049 2754 3221 3426 3142 2980 2644 2912 2933 3180 3399 3262 3232 2996 3675 3268 3271 3519 3495 3229 2062 1678 1767 1592 1404 862 1007 874 1601 1676 1279 990 1319 1259 1082 1301 429 17 0 63 228 1162 1607 2160 2355 2888 2587 3667 3824 2878 2646 3136 2877 2329 3154 3396 3813 3924 3409 2790 2393 2276 2047 2134 2581 2652 2429 2205 2087 1686 1515 1228 1120 978 651 334 286 269 36
2505 2516 2620 2847 3005 3400 3176 2830 3116 3800 3450 2899 3168 3182 3204 3396 3867 2825 3050 3582 3453 3639 3672 3533 3082 3065 3041 2172 2269 1824 1306 1423 999 1074 1004 962 340 885 1657 1886 1941 1918 1377 767 995 156 872 1795 1915 2059 2325 2997 2814 2944 3972 2914 2740 2967 2665 2609 2618 2849 3363 3872 3408 2737 2325 2394 2602 2055 2444 2731 2361 2177 1972 1497 1172 1253 1034 730 451 331 254 205 270
2660 2463 2301 2185 2652 3454 2871 3293 3595 3705 3572 3179 3471 3283 3265 3494 3788 3179 2942 3187 3578 3682 3645 3555 3294 2993 2743 2420 2110 1837 1520 2382 1598 2059 1687 936 808 1545 1488 1253 1246 2322 2346 1485 1860 93 477 1517 1717 1796 2281 2316 2528 4434 3384 2928 3015 2714 2446 2716 2906 2819 3343 3904 3319 2786 2321 2551 2942 2232 2122 2365 2054 1854 1828 1511 1110 1160 1172 880 588 390 192 0 11
3038 2647 2440 2504 2586 3200 3283 3813 3710 4023 3706 3410 3614 3285 3474 3205 3092 2557 2582 3237 2846 3308 3576 3000 2996 2842 2501 3327 2481 1936 1914 2566 2380 2182 2486 2221 2273 2270 1871 1336 1317 1449 1939 2109 1545 281 374 1471 1938 2473 2814 2159 2783 4048 4959 2997 2913 2390 2842 3444 3244 2976 3320 3777 3292 3015 2482 2669 2979 2780 2205 2327 1932 1776 1703 1594 1210 1148 1140 1062 738 512 336 0 0
2325 2977 3014 2616 2597 2972 3321 3742 3906 4013 3879 3746 3703 3582 3360 3403 2866 2642 2399 2801 3050 3749 3845 3138 3047 2741 2460 2193 2952 2761 2331 2497 2729 2653 3138 2628 3222 3792 2432 2546 1783 1481 2388 2386 2482 2399 2229 1746 1831 2218 3865 3474 2888 2888 3111 3172 3034 2793 2896 3961 3314 3057 3356 3539 3317 3002 2573 2663 2981 2994 2496 2460 1931 1701 1670 1470 1389 1340 1196 1125 958 694 484 56 0
2015 2455 2659 3089 2774 3500 2951 3490 3804 3677 3561 3691 3546 3967 3597 3613 3242 2863 3017 2968 2894 3842 3780 3121 3011 3071 3344 2416 2151 2667 2919 2662 2584 2145 2493 4270 2027 2108 2042 2656 2258 1763 2286 2033 2288 2500 2396 2358 2055 2456 3368 3372 3422 3472 3872 3438 3543 2997 3125 3044 3652 3304 3275 3389 3179 2871 2728 2841 2934 3069 2720 2574 2144 1557 1499 1456 1504 1534 1489 1261 1101 889 650 467 0
2075 1898 2372 2500 3130 3060 2507 3115 3457 3346 3294 3330 3585 3745 3452 3545 3618 3340 3354 3593 3017 3574 4269 3729 2999 2989 2582 2603 3198 2522 2674 2799 2188 2940 3539 2993 2937 2830 3812 3048 1727 1454 1911 2594 1938 2687 2949 2742 2658 2561 2418 2659 3374 3048 2849 3286 3554 2966 3154 3193 3566 3738 3495 3350 2948 2768 2789 2892 2961 3129 2805 2666 2308 1701 1584 1566 1523 1534 1515 1470 1241 1055 835 608 328
1808 2199 2225 2153 3020 3042 2754 2882 2817 2994 2952 3147 3489 3512 3211 2914 3064 3413 3521 3685 3329 3528 4045 3994 3434 3146 2593 2510 3027 2590 2860 4005 2990 2111 2230 2612 3300 2612 2262 3517 3031 2624 2849 2956 2595 2537 2907 3052 2892 3025 2840 2433 2595 2501 2040 3330 3630 3344 3218 3501 3441 3775 3762 3373 2918 2827 2846 2909 3033 3108 2862 2688 2426 1814 1789 1774 1770 1437 1315 1340 1368 1120 1015 784 535
1578 2494 2172 1998 2544 2653 2786 2641 2503 2549 2835 2990 3208 3540 3190 2777 2578 2788 3019 3075 3243 3064 3261 2954 2747 2564 2440 2409 2711 3084 3497 3178 3168 3326 2556 2437 3083 2995 3153 2625 2560 2525 2026 1963 1904 2064 2444 3001 3268 3117 3038 2928 2439 2448 2839 3077 3024 3614 3319 3418 3729 3759 3434 3180 3036 2985 2974 3051 3118 3060 2904 2771 2504 1922 1925 1954 2054 1741 1250 1190 1241 1128 1062 966 682
1428 1556 2199 2121 2245 2355 2322 2299 2068 2320 2516 2608 2812 3160 3207 2822 2511 2824 2806 2795 3098 2880 3006 2880 2850 2586 2514 2110 2426 3272 3528 3017 2944 2852 2930 2829 2842 2828 2589 2307 2130 2564 2665 2357 2312 2318 2244 2580 2680 2861 3212 3135 3028 2770 2545 2720 2639 3038 3345 3102 3581 3344 2791 3217 3204 3135 3085 3139 3183 3058 2908 2851 2576 1963 2006 2061 2124 1998 1640 1371 1108 1027 916 1031 862
1266 1266 1649 1966 2207 2220 2147 2118 2042 1957 2202 2258 2303 2552 2922 2857 2767 2846 2887 2757 3118 2938 2963 2853 2614 2468 2377 2564 2569 2720 3286 3019 2933 2725 2495 2326 2246 2548 2574 2446 2164 2150 2595 2489 2454 2693 2763 2952 3218 3519 3130 3232 3426 3560 3379 3250 3213 3170 3068 3187 3107 2849 3012 3423 3377 3167 3138 3158 3175 3070 2953 2905 2640 2088 1978 2046 2120 2122 1887 1798 1580 1320 895 936 1064
1086 1130 1151 1315 1871 2174 2130 2093 1992 1861 2089 2217 2194 2178 2466 2493 2605 2588 2411 2607 2888 2921 2869 2855 2891 2632 2139 2002 1955 2216 2505 2665 2567 2353 2081 1868 1678 1425 1980 2479 2298 2230 2097 2579 2397 1949 2135 2230 2710 2794 3013 3341 3325 3396 3332 3090 2986 3035 3102 3279 3387 3566 3507 3203 2964 3173 3129 3018 2920 2776 2925 2828 2534 2137 2217 2240 2118 2108 2008 1816 1734 1672 1335 791 1104
366 877 1061 1127 1169 1998 2069 2042 2001 1734 1917 2142 2086 1898 2060 2323 2388 2371 2300 2627 2486 2498 2421 2538 3153 2787 2351 2071 1905 2064 2257 2333 2201 2233 2080 1925 1856 1858 1897 1778 2468 2302 2469 2698 2811 2650 2690 2686 2770 3080 3164 3177 3388 3522 3389 3247 3114 2979 2871 2798 3095 3817 3690 3583 3892 3162 2900 2837 2776 2738 2782 2644 2402 2301 2349 2315 2166 2095 2027 1857 1717 1696 1686 1040 866
181 303 514 1116 1117 1408 1926 1881 2233 1817 1601 2048 1895 1670 1567 1963 2408 2299 2153 2185 2561 2351 2328 2415 2544 2450 2238 2251 2186 2161 2011 1894 1927 2174 2155 1854 1408 1322 1178 1264 1923 1990 1775 1905 1795 2436 2444 2339 2356 2746 3434 3596 3016 2844 2876 3142 3295 3272 3312 3526 3800 3205 2734 2620 2705 2938 2905 2847 2856 2702 2604 2446 2235 2408 2381 2291 2128 2059 1977 1871 1727 1676 1709 1529 860
221 78 214 590 1190 1283 1462 1596 1747 2074 1593 1871 1926 1700 1491 1391 1622 2182 2147 1991 1952 2160 2352 2310 2246 2247 2203 2113 1972 1940 1846 1668 1572 1499 1479 1560 1666 1726 1634 1292 956 1806 2261 2306 2698 2311 2357 2280 2472 2710 2513 2709 2794 2779 2728 2657 2818 2995 2889 2885 2858 2914 3181 3112 3058 3287 2942 2889 2742 2555 2435 2262 2198 2358 2332 2205 2096 1969 1904 1786 1650 1620 1716 1570 1317
294 110 92 216 562 1340 1360 1329 1321 1657 1877 1705 1788 1951 1895 1844 1656 1533 1692 1830 1980 1952 1881 1873 1946 2052 2022 1885 1857 1879 1856 1843 1805 1608 1430 1530 1650 1541 1382 1714 1958 1420 1100 1022 1441 2442 2650 2595 2435 2287 2505 2534 2580 3030 3162 3058 2326 1648 2729 3481 3049 2652 2417 2275 2724 3019 2978 2803 2437 2130 2105 2163 2209 2239 2187 2079 1935 1842 1764 1647 1646 1687 1724 1598 1495
474 271 47 146 216 959 1330 1274 1206 1339 1759 1781 1681 1904 2016 1888 1949 1968 1482 1409 1720 1901 1860 1761 1688 1609 1589 1596 1461 1503 1650 2666 2211 2051 1799 1924 1673 1509 1121 1084 1414 1720 1566 1614 1592 1754 2265 2632 2660 2657 2602 2640 2798 2961 2462 1835 1499 1218 1139 1266 1988 2125 2007 2219 2885 3573 3480 2448 2210 2480 2602 2493 2225 1988 1932 1968 1914 1802 1790 1833 1791 1741 1736 1675 1567
631 352 235 12 215 332 878 1178 1124 1172 1451 1795 1896 1726 2064 2095 1854 1822 1925 1696 1500 1648 1789 1757 1660 1586 1516 1472 1491 2371 2918 3697 3288 2144 1762 2196 2671 1881 1526 1430 1384 1536 1592 1634 1642 1625 1690 1773 1843 1856 1898 1930 1952 1959 1877 1888 1807 1657 1587 1594 1946 2114 2354 2572 2577 2253 2465 2986 2638 2322 2172 1891 1851 1977 1978 1896 1861 1870 1997 1956 1850 1817 1870 1779 1610
549 704 248 144 35 270 332 796 1055 1014 1125 1466 1815 1757 1760 2136 2158 1913 1749 1742 1705 1517 1545 1588 1536 1438 1442 1440 1335 1819 3523 3775 3407 2762 1763 1431 1517 2178 2238 2500 2218 1690 1744 2006 2117 2428 2449 2354 2381 2523 2414 2237 2062 1856 1649 1460 1470 1338 1280 1130 1460 1776 1946 1880 1915 2336 3114 2916 2428 1981 1903 2083 1990 1925 1851 1818 1888 2050 2104 1952 1772 1735 1870 1838 1651
536 868 1018 172 26 95 266 342 691 953 965 1082 1460 1735 1701 1777 2047 2078 1915 1709 1562 1486 1411 1384 1383 1348 1269 1209 1164 1032 815 601 1011 2518 2528 1640 1257 1276 1474 1644 2318 2726 2265 1975 1888 2154 2348 2290 2347 2447 2381 2283 2187 2056 1927 1876 1923 1934 1715 1972 2136 1871 1568 1995 2063 1627 1650 2974 1963 2040 1751 1757 1694 1740 1935 2256 2362 2328 2193 2012 1823 1727 1780 1726 1578
636 661 709 1184 1072 62 70 181 306 615 868 968 1049 1176 1404 1539 1626 1824 1835 1794 1622 1454 1384 1283 1238 1295 1274 1142 1010 904 753 1340 1516 1083 2038 2197 1671 1134 1078 1282 1228 1413 2093 2274 2142 2045 2210 2407 2317 2300 2398 2364 2152 1946 1785 1707 1610 1492 1218 1114 1632 1972 1829 1550 1371 1290 1316 3169 2564 2026 1772 1874 2513 2554 2508 2566 2410 2310 2242 2088 1900 1729 1636 1538 1460
1016 858 819 857 1034 1273 1004 204 216 349 541 737 854 867 848 1015 1279 1449 1535 1618 1636 1542 1400 1322 1251 1228 1272 1245 1083 887 466 417 617 1022 1350 1525 1451 1223 967 914 971 1052 947 820 902 1239 1629 1772 1865 1869 1838 2050 2054 1852 1884 2114 2348 2295 2337 2442 2259 1815 1711 1683 1634 1640 1709 2372 2145 2151 2171 2103 2138 2363 2332 2141 1958 2016 1958 1774 1614 1444 1322 1260 1287
1398 1156 1002 971 984 1121 1223 1470 1606 939 788 508 444 476 622 621 153 1062 1194 1348 1479 1515 1454 1284 1187 1161 1215 1247 1222 1111 902 319 207 332 941 1157 1076 965 914 837 804 817 765 699 516 139 21 76 198 320 288 340 614 785 794 1009 1760 1955 1813 1588 1452 1856 2440 2486 2387 2377 2461 2668 2763 2666 2308 2017 1891 1726 1567 1342 1182 1292 1339 1359 1389 1229 1027 969 1047
1556 1524 1528 1392 1086 1009 1145 1197 1312 1431 1528 1503 860 724 616 542 455 0 648 1112 1277 1288 1296 1306 1175 1006 953 1064 1128 1115 1048 912 660 480 628 1141 1520 1196 902 792 697 647 636 649 641 498 424 116 14 4 0 0 3 9 90 179 350 676 1104 1751 2104 2072 1816 1785 1872 2076 2226 2308 2296 2243 2166 2102 2024 1752 1434 1170 1146 1315 1349 1347 1207 924 852 823 950
1941 1834 1646 1513 1428 1341 1266 1170 1112 1124 1377 1488 1490 1552 1525 1135 813 611 338 644 1065 1125 1010 969 1054 1040 878 881 1048 1063 1033 1002 946 674 302 342 691 1384 1755 1720 1453 1194 999 987 936 846 764 713 987 1098 1065 971 818 427 0 0 1 62 406 870 1086 1736 2257 2269 2285 2421 2439 2438 2560 2530 2378 2136 1888 1634 1279 873 999 1053 1101 1083 1022 1115 1033 851 798
2020 1939 1834 1677 1691 1628 1378 1193 1159 1083 1132 1319 1388 1411 1536 1738 1779 1749 1456 976 712 942 941 576 181 85 183 885 1190 588 927 1098 1148 1146 1048 936 757 458 500 868 1301 1700 1974 2150 2264 2250 2140 1975 1868 1791 1722 1639 1451 1211 980 750 400 0 4 63 67 277 854 1540 1487 1486 1778 2080 2305 2388 2357 2084 1724 1265 993 876 889 1042 1066 1112 1166 1185 1051 808 633
1667 1782 2018 1847 1789 1766 1662 1555 1314 1159 996 1114 1266 1353 1379 1396 1636 1815 1933 1946 1708 1297 972 722 546 524 596 1191 1628 1479 736 416 61 341 677 1154 1262 1132 910 756 682 578 423 367 746 822 834 1008 1317 1528 1566 1543 1504 1420 1343 1248 1078 858 662 544 448 375 215 149 350 566 718 776 1042 1827 1875 1640 1468 1421 1139 785 605 190 748 1003 1065 1080 946 730 612
Wind_Speed
16 16 15 15 15 16 18 18 17 17 16 18 18 19 20 21 22 23 22 22 22 23 21 24 25 25 21 22 22 22 23 23 24 24 24 25 24 24 22 23 24 23 21 21 21 20 20 18 19 19 19 20 20 21 21 22 23 23 25 24 24 23 22 21 23 23 22 23 24 24 24 26 26 27 27 27 27 27 26 27 27 28 27 28 29
17 15 14 14 16 17 18 18 16 17 17 19 19 20 22 25 25 26 27 24 22 20 22 23 25 24 22 22 23 23 23 23 23 24 23 22 23 24 24 25 24 22 22 22 22 20 19 19 19 19 20 21 22 22 23 24 25 25 26 25 25 24 23 22 24 24 23 24 24 26 26 27 27 28 28 28 28 28 27 28 28 28 28 28 30
16 15 14 14 15 15 16 16 17 18 18 20 21 22 24 27 28 26 24 23 25 26 22 23 23 25 25 23 23 22 22 23 22 22 21 21 21 23 23 25 24 23 23 22 21 20 20 20 20 21 23 23 24 24 25 26 26 26 26 25 25 25 23 24 25 24 25 25 26 27 27 28 28 28 29 29 29 29 29 29 29 29 29 30 31
15 15 15 14 15 16 17 17 18 18 18 21 21 24 25 27 27 26 25 26 27 29 25 22 23 25 24 22 22 22 22 22 21 21 20 19 20 22 22 22 24 23 23 22 21 21 21 22 22 23 24 25 25 26 25 25 27 27 27 26 26 25 25 25 24 24 25 26 27 28 28 28 29 29 29 29 29 29 30 30 31 31 31 32 33
16 15 16 16 16 17 18 19 19 18 18 21 23 24 25 24 26 25 25 26 27 26 23 22 23 24 22 22 21 22 22 20 20 19 19 19 19 20 21 20 19 23 24 23 23 22 22 23 24 25 25 25 26 26 27 27 27 27 27 26 26 25 25 25 24 25 26 27 28 28 27 28 28 29 29 29 29 30 30 31 32 32 32 33 34
15 16 17 17 17 19 20 21 20 18 19 21 23 24 23 21 24 23 24 24 24 24 22 22 23 23 20 20 21 20 20 20 18 18 17 18 19 19 19 19 19 19 19 23 24 23 24 24 25 26 27 27 27 27 28 28 28 28 28 27 26 25 25 25 25 26 26 27 27 27 27 28 28 28 29 29 30 30 31 32 32 33 33 34 35
14 15 18 18 18 20 21 22 20 18 19 21 22 23 20 21 21 22 22 23 23 23 22 22 22 20 19 19 20 18 17 16 17 15 17 17 18 18 18 18 18 18 18 18 20 24 24 26 27 28 28 28 28 28 29 29 29 28 28 27 26 25 25 25 25 26 26 26 26 27 27 28 29 29 29 30 31 31 31 32 33 34 35 36 36
14 15 17 18 19 21 21 22 20 19 20 21 20 19 19 19 20 18 19 22 22 23 20 20 16 17 17 16 17 15 13 13 15 16 16 15 17 17 17 18 18 18 17 16 16 18 25 27 28 29 29 29 29 29 29 29 29 29 28 27 26 26 25 25 25 26 25 25 26 27 28 29 29 29 29 30 31 32 32 33 35 35 37 37 38
15 18 17 18 19 21 22 21 19 20 20 19 19 19 17 17 17 17 17 19 19 20 20 16 14 14 15 14 17 16 14 15 15 14 12 15 17 16 16 18 18 18 16 15 15 17 22 27 28 30 30 29 28 29 29 29 29 29 28 27 26 25 25 25 26 25 25 25 26 27 28 28 29 29 29 31 32 33 33 34 35 37 38 38 38
17 20 19 18 19 21 18 16 15 16 17 17 18 18 17 15 16 17 17 18 19 19 18 14 13 14 14 13 12 12 11 12 13 11 12 15 15 15 16 17 16 16 16 15 15 17 19 24 29 29 29 28 28 28 29 29 29 29 28 27 26 25 25 25 25 25 25 26 26 27 28 28 29 29 29 31 33 33 34 35 36 38 39 39 39
17 18 18 18 19 19 14 15 14 14 15 15 16 15 16 16 16 16 15 15 18 18 15 13 14 12 12 13 14 13 13 14 12 14 14 14 15 15 13 16 15 16 17 16 15 16 18 19 21 21 22 27 28 29 28 28 28 28 27 26 25 25 25 25 25 25 25 26 26 27 27 28 28 29 29 31 33 33 34 35 36 37 38 38 38
14 16 17 16 16 14 13 13 14 13 13 13 15 14 15 16 17 14 15 15 16 15 12 9 7 8 10 12 13 13 13 14 14 14 14 14 14 13 12 14 14 16 17 17 15 16 17 18 19 20 20 22 27 28 28 27 27 26 25 24 24 24 24 24 25 25 25 26 26 25 26 27 28 29 29 30 32 32 33 33 34 35 36 36 36
12 12 12 11 12 12 11 12 14 13 13 14 15 14 14 13 13 13 13 13 14 13 11 8 6 8 11 12 13 13 13 13 14 13 14 14 12 10 12 13 16 14 16 16 15 16 17 17 19 19 19 18 21 25 27 26 24 23 23 23 23 23 24 24 24 24 24 25 24 24 24 25 26 27 27 28 29 30 31 31 32 33 33 33 34
9 10 10 9 9 10 11 12 13 13 13 14 15 14 13 12 12 12 12 11 12 12 9 7 8 8 9 11 11 11 12 12 12 11 12 13 14 12 10 14 16 15 14 14 15 16 16 16 17 18 18 17 18 18 19 20 20 23 22 21 22 23 23 23 23 23 23 23 23 22 22 22 23 24 24 25 26 27 28 28 29 30 30 31 31
9 9 9 10 9 10 11 12 12 13 13 14 14 14 13 13 12 10 12 12 11 11 6 7 8 8 6 6 9 8 9 10 11 10 11 12 12 11 11 13 15 15 13 12 14 15 16 15 16 16 16 15 17 17 16 16 18 20 21 21 21 22 22 22 21 21 20 20 19 19 19 20 21 21 22 23 24 25 25 26 27 27 27 28 28
9 9 8 9 9 9 9 10 11 11 12 13 14 14 14 14 11 10 9 10 10 11 9 7 6 4 6 7 9 5 7 12 13 12 8 12 nan 11 10 12 13 13 13 11 12 14 16 12 13 14 13 14 15 15 15 16 19 20 20 19 21 21 20 19 18 18 18 18 17 16 17 18 19 20 20 20 22 22 24 24 24 24 23 23 24
10 10 8 8 8 7 8 9 9 10 11 12 13 15 14 13 11 9 8 8 9 9 8 6 4 5 5 6 7 7 8 9 10 12 9 7 12 9 11 nan 11 12 12 14 11 12 13 12 10 9 11 13 13 13 14 14 14 12 15 18 20 19 15 14 15 15 15 15 15 15 16 16 17 17 16 17 19 21 21 21 21 21 22 22 22
10 9 8 7 7 8 7 8 8 9 10 10 11 11 12 11 10 9 10 9 8 6 8 7 5 6 7 5 5 6 7 9 6 9 14 10 8 5 9 nan 10 9 11 12 12 11 11 11 9 9 11 12 13 11 13 11 10 9 11 13 16 13 11 12 12 13 14 13 13 14 14 14 13 13 13 14 15 16 17 19 20 20 20 20 19
9 8 7 8 8 8 7 7 7 7 7 7 8 8 8 8 7 7 9 6 5 5 5 8 7 7 7 8 7 6 5 7 7 8 9 13 9 nan nan nan 8 7 8 12 13 10 9 9 9 9 10 11 11 12 12 10 9 9 8 7 7 6 8 10 11 12 12 12 12 12 12 11 11 11 11 12 13 15 16 17 18 19 18 17 17
8 7 8 8 8 8 7 6 6 7 6 7 5 4 3 5 5 7 6 5 6 5 6 6 4 7 6 6 8 7 6 6 5 6 7 8 11 11 nan nan nan 7 9 11 10 7 9 9 7 9 10 10 11 11 9 7 4 2 2 4 5 6 7 9 10 11 12 11 10 9 9 9 9 9 10 10 12 13 14 16 16 16 16 16 17
8 8 8 7 8 6 5 6 7 7 5 6 5 5 4 4 4 5 6 6 6 7 5 6 5 6 6 6 6 6 7 7 5 4 6 6 10 7 5 nan nan 9 10 9 8 8 9 8 7 8 9 9 10 7 2 2 0 1 3 5 5 6 7 9 9 11 11 10 9 8 8 8 9 9 10 10 11 12 13 14 14 15 17 17 17
7 7 7 7 7 5 6 7 7 5 5 5 5 4 4 4 5 6 5 5 6 5 6 7 7 6 5 5 5 6 7 7 6 5 6 6 6 8 8 5 6 8 7 6 6 10 7 5 6 7 8 7 4 1 0 1 2 1 3 6 6 6 7 6 7 9 9 10 8 7 7 8 10 10 10 11 11 11 12 13 14 15 16 16 16
5 6 6 6 6 6 6 7 6 5 4 4 4 5 6 5 4 4 4 4 5 5 6 6 6 7 7 4 5 4 5 5 6 4 3 4 6 9 8 8 7 4 6 2 4 7 7 4 1 4 2 2 2 2 3 3 3 3 6 7 8 8 8 7 7 8 10 10 7 7 7 9 11 10 10 11 11 11 11 13 13 13 14 15 16
4 4 5 6 5 6 7 5 5 4 4 4 5 5 5 3 3 4 6 6 5 5 5 6 7 7 7 6 6 6 7 6 7 4 2 5 5 7 8 10 10 7 6 5 5 5 4 3 1 4 5 5 5 4 3 3 4 7 5 8 9 9 9 9 10 10 11 9 8 7 8 10 12 12 11 11 12 11 11 11 11 12 13 15 nan
3 3 5 5 5 6 6 4 5 5 3 3 3 2 2 3 4 5 6 6 6 5 5 6 7 5 7 6 6 7 9 9 5 5 4 4 4 5 7 5 7 9 8 nan nan nan 4 0 3 4 5 3 3 4 4 5 5 7 7 8 12 11 12 11 11 11 12 11 9 9 10 11 13 14 14 14 13 12 10 10 10 12 13 13 nan
2 3 5 4 5 5 4 4 4 4 4 3 2 2 2 3 4 4 5 6 5 4 6 6 7 7 6 7 5 6 8 9 7 3 4 4 5 5 6 7 6 7 7 7 6 4 4 2 4 4 4 3 3 3 4 5 5 7 9 7 9 13 14 13 14 13 14 14 12 11 11 12 13 15 17 17 16 14 12 10 10 11 12 12 12
4 3 4 3 4 3 3 4 4 4 3 3 2 3 3 3 2 2 3 4 5 5 6 6 7 8 8 7 5 6 7 7 8 7 6 5 5 5 4 6 9 7 7 7 7 nan 2 4 2 2 3 3 3 3 6 6 8 9 9 7 9 15 15 15 15 15 15 16 14 12 11 11 13 15 17 19 18 16 14 12 11 12 11 nan nan
7 3 3 2 2 2 2 3 3 3 4 2 2 2 3 2 3 3 4 5 5 6 7 6 7 8 6 4 4 5 5 6 5 6 5 4 4 5 5 4 4 7 8 7 8 8 6 6 7 5 1 2 2 3 5 8 8 10 9 7 10 11 14 16 17 16 16 16 16 14 13 12 13 15 16 18 18 17 15 14 13 12 11 nan nan
7 6 5 2 1 1 2 2 2 2 3 3 3 3 3 3 3 5 6 6 4 6 6 5 7 9 8 6 4 5 6 6 5 5 4 4 5 5 4 4 3 5 6 7 7 7 9 9 6 6 5 1 3 3 3 5 7 8 7 9 10 11 13 16 17 17 17 17 18 17 16 15 15 16 17 18 18 17 17 16 15 13 11 nan nan
6 8 7 5 3 2 2 2 2 2 2 3 3 3 4 3 3 5 6 5 4 6 6 4 6 6 6 8 5 5 6 5 5 4 3 4 4 5 4 4 4 5 4 6 7 6 7 9 7 5 5 5 3 3 2 4 6 9 7 11 13 13 17 18 18 19 18 18 20 20 19 18 17 18 18 18 19 18 18 17 16 14 11 10 nan
7 8 7 7 5 3 3 2 2 1 2 2 2 2 3 4 4 5 6 5 5 7 6 5 7 6 7 7 7 6 6 5 3 4 2 3 4 4 5 5 4 5 5 6 7 8 6 7 5 5 3 2 2 2 5 7 9 10 8 10 13 16 20 18 20 20 19 19 20 21 21 20 19 20 20 20 20 19 18 17 16 14 12 9 8
8 8 7 6 6 4 3 3 2 2 1 2 2 2 2 3 4 4 5 4 5 7 7 7 7 4 6 7 6 6 6 5 5 3 3 4 3 3 4 5 4 5 6 7 6 6 6 6 6 5 3 4 5 5 5 8 10 14 10 9 11 15 16 15 18 21 21 20 19 19 20 20 20 20 20 20 21 20 19 17 16 14 11 10 9
8 10 8 7 7 5 4 5 2 1 1 2 2 3 2 3 4 4 5 4 4 6 6 8 8 5 6 7 7 7 6 3 5 5 5 5 4 2 2 4 4 4 6 6 6 6 8 7 7 7 6 7 7 8 7 7 8 8 10 9 10 12 13 13 16 19 22 22 21 20 20 19 19 19 19 20 20 20 19 18 15 13 11 10 9
8 9 9 9 8 6 5 5 5 3 2 2 2 3 2 2 3 3 3 3 3 5 4 7 8 7 6 7 9 10 7 4 5 6 5 4 4 2 2 1 1 1 3 6 3 4 4 7 8 7 7 7 7 7 7 6 6 9 10 10 10 12 11 13 14 15 21 22 22 22 20 20 19 19 19 20 20 20 19 18 16 14 12 12 10
9 9 9 9 9 7 6 5 4 5 3 2 3 3 2 2 2 3 2 0 1 3 3 4 5 5 5 6 8 9 8 6 6 6 7 6 3 2 2 1 2 2 0 3 5 2 2 3 4 6 6 7 7 5 6 7 8 9 10 9 10 10 10 13 13 13 18 21 22 22 22 21 20 20 19 19 20 20 20 18 17 16 14 13 12
10 10 10 9 10 8 7 6 4 5 4 3 2 3 2 2 2 2 4 2 1 1 2 2 2 2 3 4 6 7 7 6 6 6 7 7 5 3 1 1 1 1 1 3 4 5 4 4 5 6 6 6 7 7 8 9 9 9 11 12 12 12 11 10 13 14 18 22 22 22 23 22 22 22 22 21 20 20 20 20 18 17 15 14 13
12 12 12 10 10 10 7 7 7 4 6 4 3 2 3 3 2 2 2 3 2 0 1 1 0 1 1 2 4 4 4 5 5 5 5 5 4 3 3 3 3 3 4 5 6 8 8 7 6 7 8 8 9 9 10 10 9 11 12 12 12 13 13 12 12 16 18 22 22 23 23 23 23 24 24 23 22 20 20 20 18 17 16 14 13
13 11 12 12 10 10 10 9 10 7 6 7 4 2 2 5 4 2 2 3 3 1 0 1 0 1 1 1 1 2 1 1 2 1 1 2 2 3 3 3 4 5 5 5 7 8 9 8 9 7 9 9 10 9 9 10 10 10 10 10 12 13 13 11 11 16 17 18 18 18 17 18 21 22 23 23 23 22 20 20 17 16 16 15 14
12 nan 10 11 12 10 10 10 10 9 7 8 7 5 4 3 5 5 3 3 3 3 2 1 0 1 1 1 1 1 1 1 1 1 2 3 2 2 2 2 4 5 6 7 7 7 8 8 8 8 7 7 9 7 6 7 8 9 7 7 8 9 11 13 9 12 15 16 16 19 18 18 18 19 20 22 23 23 22 21 18 16 15 15 14
10 9 nan 9 12 12 10 9 9 10 9 8 8 8 6 5 5 5 5 5 4 3 3 3 3 3 2 2 2 2 1 2 2 2 4 3 4 4 4 6 5 5 5 6 8 9 9 8 8 6 7 6 7 7 6 7 6 5 6 9 8 7 6 11 13 11 13 14 15 16 16 16 16 18 19 19 21 23 23 21 21 18 16 16 15
14 11 nan 11 10 12 11 10 9 9 9 8 9 9 8 6 6 6 4 4 4 4 4 4 4 3 3 3 2 1 2 1 2 2 2 3 4 3 3 5 5 6 6 7 7 8 8 9 6 7 7 6 5 5 4 4 2 5 3 9 8 9 8 8 10 12 15 15 13 14 17 19 18 18 19 18 18 22 22 22 19 22 20 18 17
17 13 13 nan 12 11 12 11 10 9 8 9 8 8 8 7 6 5 7 5 4 5 5 5 4 5 3 3 3 3 4 4 4 4 4 4 3 3 4 5 4 5 5 6 6 6 6 5 4 5 5 5 5 6 6 6 5 6 4 5 8 6 9 10 12 14 15 15 14 13 14 17 18 17 18 17 18 22 22 23 21 22 22 23 20
21 19 12 12 nan 14 13 14 12 9 8 9 9 8 8 7 7 7 6 7 8 5 5 6 6 5 5 5 5 3 3 4 4 7 6 6 5 5 3 4 5 6 6 6 6 7 7 6 7 8 8 7 6 7 8 6 8 8 7 10 9 10 11 12 13 15 17 18 14 14 12 18 20 17 17 17 17 21 22 23 26 26 25 25 23
19 22 20 14 nan nan 13 15 14 11 9 9 11 10 8 6 6 7 8 7 8 9 8 7 8 8 7 7 7 6 6 7 8 7 3 4 4 4 3 2 3 6 8 9 8 8 8 7 7 7 9 8 7 9 8 10 8 8 10 12 13 13 13 15 18 21 20 21 18 16 13 19 22 18 17 16 17 20 22 25 28 28 26 25 25
24 22 23 24 20 nan nan 13 12 13 11 10 11 12 11 9 6 6 9 9 8 9 10 10 9 10 10 10 10 11 10 4 5 9 12 8 4 3 4 4 3 4 5 7 11 11 11 10 9 9 10 10 9 9 12 12 13 11 10 10 13 14 16 16 17 19 18 23 21 16 14 19 24 19 18 18 19 19 20 23 28 29 28 26 25
27 24 24 22 22 23 21 17 14 13 13 12 12 12 12 13 11 9 8 8 9 8 9 10 11 11 11 12 12 12 13 13 14 15 16 15 13 11 8 8 9 6 5 5 6 8 12 12 12 11 11 15 11 11 12 15 16 14 15 13 15 16 16 15 17 18 20 26 22 17 14 16 22 19 16 14 18 19 20 23 29 30 29 28 25
27 25 23 23 22 22 23 24 24 21 17 14 14 11 11 14 15 15 10 10 10 10 10 10 11 12 13 13 14 14 14 14 14 15 18 18 18 16 15 13 12 11 11 11 13 13 nan nan 12 11 10 13 12 10 12 15 15 14 16 15 16 18 18 18 18 19 19 23 24 20 13 13 20 19 15 15 15 17 19 22 29 31 31 29 26
28 27 26 25 24 24 24 25 26 24 24 24 20 14 11 11 14 nan 15 13 12 12 12 12 12 13 15 15 15 14 15 16 14 10 12 19 20 18 16 16 15 14 13 12 12 14 15 15 nan nan nan nan nan nan nan 14 15 14 14 17 19 18 15 14 15 19 19 21 26 23 15 13 17 18 15 16 20 17 18 20 25 31 31 30 28
29 28 28 27 28 28 27 27 27 26 26 25 25 23 18 15 20 20 18 16 15 13 13 15 16 16 17 18 17 16 16 17 16 14 13 15 19 18 18 18 17 16 14 15 14 13 12 12 12 11 10 10 9 9 nan nan nan nan 20 18 16 18 17 15 16 19 18 22 24 25 19 14 16 18 14 16 22 20 19 19 22 24 29 29 27
27 28 29 28 28 28 26 26 27 27 25 26 29 32 30 26 25 23 22 20 17 16 16 17 20 nan 19 15 18 20 19 19 19 18 17 20 20 17 18 19 18 15 15 19 19 18 14 11 10 8 8 8 7 6 7 8 10 nan nan nan nan 22 19 18 15 17 17 22 24 27 21 17 17 19 15 13 17 20 20 20 22 22 24 23 23
24 26 27 28 28 28 28 27 27 25 25 26 30 32 35 36 33 31 29 27 22 20 20 20 21 22 22 20 16 18 21 21 nan 21 21 25 22 19 18 18 14 11 14 21 20 18 21 21 16 14 13 11 12 13 12 10 12 18 24 21 21 25 21 19 19 17 15 19 24 31 22 17 19 16 17 15 13 16 20 20 21 22 23 23 22
Wind_Direction
85 86 94 99 94 92 90 91 92 93 93 89 89 84 93 101 102 103 101 100 104 97 98 100 106 110 107 100 96 93 91 89 87 85 85 85 86 80 73 72 72 70 69 68 65 63 60 56 57 55 56 61 64 65 64 63 65 68 70 69 69 69 71 72 74 75 73 72 74 72 69 67 64 60 60 57 56 56 54 52 50 48 45 43 38
83 89 86 87 87 88 89 91 94 94 94 94 90 92 94 97 98 98 101 99 99 106 104 103 107 106 102 95 91 87 86 84 81 80 81 81 83 82 67 69 67 67 65 63 61 58 56 55 55 55 60 64 66 66 64 65 67 70 71 68 69 71 75 77 76 78 79 80 77 75 70 68 66 63 60 58 56 54 52 51 48 45 43 38 37
84 85 90 92 91 90 91 92 91 92 95 98 97 93 91 93 95 102 105 116 115 107 105 100 98 96 94 92 88 83 82 80 78 77 76 77 79 81 77 65 65 63 61 59 58 56 55 56 55 59 64 65 65 62 64 67 72 74 74 75 75 77 78 78 80 81 82 82 78 76 73 70 67 63 60 57 55 53 50 49 46 44 40 38 36
83 89 95 99 99 96 95 91 87 89 93 95 94 93 94 96 102 110 116 113 114 110 104 92 90 88 91 84 85 82 77 76 73 72 73 73 73 76 78 75 63 62 61 60 58 57 57 58 61 63 66 66 65 66 69 73 74 74 74 74 76 79 80 81 83 86 85 82 79 75 73 69 67 63 60 57 55 53 51 48 46 43 40 37 36
84 87 94 99 102 96 93 90 87 87 92 93 96 96 98 104 109 111 112 109 103 103 104 97 87 85 87 83 80 79 77 73 73 70 68 68 67 70 72 72 74 63 60 60 59 58 60 61 65 67 69 68 66 68 71 75 76 77 76 78 78 81 84 85 88 88 85 81 79 77 73 69 66 63 61 59 56 53 51 49 46 43 41 39 37
77 87 89 89 89 89 88 91 88 92 94 95 96 98 100 102 103 106 107 105 107 103 101 98 84 85 84 80 77 76 75 74 68 67 68 65 64 66 68 71 71 72 70 61 61 62 62 64 66 68 68 67 67 70 73 77 77 76 77 79 81 83 86 89 90 88 85 82 79 76 73 69 67 65 63 61 59 56 53 50 47 45 43 41 39
79 78 83 89 91 90 92 89 88 91 92 92 92 93 93 94 97 102 104 105 104 100 98 95 85 84 81 82 78 79 78 73 65 67 64 63 64 63 64 67 68 70 69 72 68 64 65 66 67 68 68 67 69 72 74 76 77 77 78 79 82 85 87 90 90 86 83 80 77 74 72 69 67 65 63 63 61 57 54 52 49 46 44 42 41
80 82 82 91 94 92 90 91 89 90 87 88 91 91 94 93 96 97 100 102 103 98 95 90 84 89 91 89 85 91 82 75 69 61 63 63 64 64 66 67 67 68 67 70 73 74 68 68 68 68 68 68 70 74 76 76 76 77 78 79 82 86 89 89 88 85 82 78 75 72 70 68 66 65 63 62 61 57 54 52 49 48 46 43 43
75 73 72 73 79 85 82 82 82 83 85 88 89 91 90 90 96 98 98 99 98 100 101 95 92 88 84 88 87 90 87 85 91 77 67 62 64 65 65 68 68 65 68 67 71 76 75 70 69 67 67 69 71 74 76 76 76 77 78 80 83 86 87 87 85 83 79 76 73 71 69 68 66 65 63 62 60 56 53 51 49 48 48 48 46
61 63 65 66 65 73 71 75 77 81 88 95 91 93 96 92 93 90 87 100 106 105 99 86 88 87 92 86 91 91 93 89 93 90 68 62 65 63 64 70 71 69 69 67 68 74 78 72 67 67 67 69 71 72 74 75 76 77 79 81 84 86 87 85 82 80 77 74 71 70 68 67 66 65 63 61 60 56 53 52 50 48 48 47 47
56 65 69 68 66 69 68 75 79 79 88 95 95 95 98 97 94 93 95 86 86 93 95 93 88 85 83 87 88 91 91 91 90 88 82 71 63 60 64 73 72 70 71 69 71 74 75 75 71 70 69 68 70 71 72 73 74 76 78 82 84 84 84 83 81 78 76 73 71 69 68 67 66 65 63 60 58 55 53 52 51 50 52 51 49
62 64 72 69 73 75 75 78 80 82 86 92 93 90 91 95 98 95 96 98 92 89 94 92 104 91 82 87 86 81 82 87 92 91 88 80 75 72 63 73 73 71 72 74 71 72 71 71 69 67 67 70 70 71 71 71 72 74 77 80 82 82 82 81 79 78 75 74 72 68 66 66 66 65 61 59 57 56 54 53 52 52 53 51 47
49 56 67 69 73 79 78 76 78 82 83 87 90 86 86 90 97 102 96 103 102 103 106 92 93 95 101 77 77 82 78 81 84 90 90 85 87 68 75 77 80 76 75 79 74 68 66 65 68 67 66 69 73 71 71 72 72 74 77 78 80 80 80 79 78 77 75 74 72 69 67 65 64 63 60 58 57 56 54 52 51 50 51 49 46
53 57 59 60 58 65 74 68 73 74 74 78 82 79 85 87 91 95 93 91 95 91 91 108 102 75 81 85 90 90 96 95 96 92 85 83 82 85 75 72 81 82 78 77 72 66 64 62 65 66 67 70 73 76 76 75 75 75 76 77 78 78 77 76 76 77 76 76 74 71 69 67 66 63 61 58 56 55 53 51 49 47 45 44 42
44 47 48 55 50 48 56 59 60 64 65 65 65 68 67 70 70 78 89 91 87 89 84 92 94 87 92 102 98 99 107 117 107 91 85 86 88 95 82 83 85 86 74 73 72 70 67 61 60 63 66 70 75 75 75 75 72 71 73 74 75 76 75 75 76 78 78 79 76 73 71 68 67 66 62 59 57 54 52 49 46 42 39 38 37
34 42 50 48 40 41 51 53 58 57 50 53 57 59 64 63 61 66 73 86 92 88 76 86 76 80 93 92 87 92 113 111 105 112 95 88 nan 90 88 93 88 94 96 80 67 69 70 67 58 57 63 67 71 74 73 72 69 68 70 70 69 70 71 74 78 80 80 81 78 75 72 69 66 63 63 61 57 53 49 45 41 36 32 31 28
35 40 46 47 50 46 43 45 47 48 49 51 49 52 53 51 45 56 64 67 88 93 92 73 72 82 97 115 117 119 103 106 119 121 125 126 100 96 95 nan 89 93 95 89 79 70 73 70 64 64 68 76 78 72 71 72 72 74 73 71 68 66 69 74 77 80 80 79 78 74 70 66 64 64 65 64 57 48 41 35 32 27 25 23 20
41 43 43 52 51 48 52 45 47 48 51 54 50 50 47 48 48 42 54 71 73 109 114 108 91 85 69 79 76 93 110 112 138 128 132 121 119 59 69 nan 79 83 94 90 78 66 64 68 68 63 73 74 77 82 83 78 70 71 72 75 76 73 60 58 65 75 74 73 72 72 71 65 60 62 54 57 52 39 30 27 27 22 16 13 11
42 47 40 44 52 57 56 51 48 55 67 58 65 58 45 47 48 46 52 55 73 90 108 98 124 114 121 107 104 109 82 123 126 131 136 125 129 nan nan nan 82 87 69 69 69 66 71 71 61 66 72 76 79 79 81 80 63 59 77 91 67 44 43 51 58 67 69 68 65 65 67 60 52 49 43 41 37 28 21 19 20 14 7 7 5
46 50 43 45 55 61 61 55 54 60 63 68 67 61 31 58 50 52 58 49 48 51 78 95 85 99 113 135 129 123 118 115 103 114 102 120 123 125 nan nan nan 101 81 81 90 75 66 70 64 63 75 75 74 73 83 89 80 69 47 11 28 34 41 51 56 63 65 62 59 56 51 41 35 27 23 21 23 21 15 13 13 6 360 358 359
45 49 56 53 58 60 56 57 55 59 61 52 67 77 48 47 56 61 61 58 60 66 75 92 98 99 123 117 129 129 124 110 109 126 119 123 116 121 129 nan nan 105 90 96 96 79 60 56 55 52 66 69 64 75 75 67 83 7 16 15 21 33 39 51 53 60 57 55 46 41 32 16 10 9 6 8 12 15 12 9 7 1 355 354 356
52 49 60 58 63 63 56 55 59 62 59 59 67 69 71 58 57 66 71 66 78 73 76 86 91 99 113 101 128 120 139 132 135 141 123 114 107 102 98 61 81 125 120 98 97 95 90 64 46 46 59 75 92 152 334 11 344 14 13 9 16 20 29 35 46 43 43 45 32 22 10 355 349 355 359 359 360 6 8 8 6 1 352 351 351
67 58 58 60 62 62 59 63 67 58 52 57 58 55 60 55 68 83 73 66 88 96 101 105 110 116 123 107 108 102 95 108 104 112 100 124 137 124 117 136 114 155 145 108 97 99 114 103 14 8 38 85 56 0 336 355 348 347 1 8 14 7 4 18 10 21 30 34 18 2 349 337 336 342 351 351 349 357 9 11 7 358 351 350 351
97 78 58 48 57 68 79 78 71 67 53 69 75 63 62 57 68 76 85 88 94 102 107 125 125 108 110 108 101 97 103 83 90 73 79 80 88 101 120 136 139 128 123 140 129 116 84 80 359 316 357 4 18 358 5 322 322 346 354 13 7 360 352 349 1 4 23 12 359 351 336 328 326 329 338 343 340 349 7 13 6 354 349 350 nan
112 91 78 58 48 70 93 78 98 95 92 84 74 61 38 47 46 62 76 86 90 92 106 104 115 119 105 121 122 130 111 101 105 97 78 56 97 111 112 129 129 137 139 nan nan nan 162 318 296 342 342 1 12 321 335 337 349 2 1 15 7 349 341 345 348 356 5 351 339 333 330 323 320 323 331 333 334 340 356 5 359 348 347 350 nan
142 108 82 77 49 79 91 94 104 110 93 87 96 90 82 41 58 56 77 94 95 96 95 108 118 126 130 131 156 151 129 142 119 85 85 132 122 98 113 136 136 149 146 160 156 170 164 311 350 345 325 315 6 301 355 355 4 11 4 6 354 343 336 342 342 354 359 344 339 330 322 316 316 317 321 324 325 330 338 345 347 341 344 350 352
180 135 98 122 61 97 81 97 105 101 105 101 80 100 94 94 104 69 89 112 116 115 112 111 114 120 130 130 128 132 146 151 164 174 168 141 135 123 145 150 149 166 171 162 169 nan 145 182 158 284 290 307 344 352 360 0 14 23 9 354 335 346 339 344 342 354 355 349 345 338 327 323 318 318 321 320 321 325 325 331 332 336 341 nan nan
179 187 128 155 80 114 98 108 116 103 115 118 106 96 100 93 102 104 98 113 118 125 117 125 133 128 130 142 160 148 149 156 173 155 203 181 177 149 197 194 167 156 163 168 173 170 171 194 186 201 285 297 37 1 354 355 6 22 10 340 329 339 345 344 343 348 350 345 341 339 338 334 328 326 325 322 322 322 323 320 323 329 340 nan nan
190 191 192 195 182 177 116 117 113 111 122 129 134 123 115 108 85 90 89 102 120 123 124 132 140 138 157 154 141 131 136 147 164 162 172 201 191 183 196 189 198 184 164 166 163 173 170 189 192 181 172 136 63 49 356 331 7 1 341 328 326 327 341 341 339 342 343 344 335 334 334 338 337 334 330 326 324 324 320 320 321 328 338 nan nan
206 209 209 221 197 197 177 126 114 118 115 130 141 135 129 129 116 95 92 100 106 114 118 135 130 143 156 155 165 164 134 150 154 154 152 177 174 171 186 218 223 199 172 176 155 158 160 173 198 184 165 141 149 184 274 322 357 349 333 320 314 323 336 340 339 341 341 340 336 331 333 335 338 335 332 326 323 323 324 325 324 331 337 354 nan
224 216 223 219 217 193 175 162 111 116 153 134 141 145 141 132 124 97 102 97 92 94 104 111 123 142 145 144 164 162 155 137 152 166 169 182 155 188 188 211 211 223 211 204 189 165 186 184 183 189 173 134 241 264 299 322 328 334 323 310 313 328 333 336 343 343 343 341 334 331 332 336 336 334 331 328 327 326 328 326 332 337 345 356 8
214 223 239 240 231 212 180 189 97 134 161 162 168 170 168 137 139 116 112 103 88 83 89 91 103 110 114 126 144 149 142 143 148 125 121 144 154 159 214 233 223 236 242 222 215 166 195 212 207 208 214 256 277 300 297 302 320 336 315 318 310 319 324 327 340 346 348 348 343 337 338 339 340 339 338 335 333 333 332 336 337 344 350 2 8
208 227 234 244 244 238 210 184 193 154 193 191 184 210 189 159 147 145 140 119 96 94 92 96 98 80 82 93 115 115 125 133 133 135 124 116 132 146 198 226 219 216 240 239 231 192 197 224 239 244 226 230 258 294 297 291 295 306 321 325 318 322 330 332 334 348 353 354 351 347 345 343 344 346 346 343 341 339 340 338 342 348 358 4 7
214 223 234 235 241 253 230 201 189 202 215 213 199 216 219 177 160 162 144 137 111 101 103 95 100 93 75 78 91 100 103 102 120 129 128 108 101 115 114 117 73 154 247 256 252 250 199 220 223 221 226 235 242 270 275 281 289 301 311 325 333 335 339 336 338 339 353 350 348 347 345 345 348 350 350 351 347 345 343 344 344 351 3 5 10
224 224 226 230 240 248 248 234 199 200 217 236 211 222 226 222 185 164 185 152 103 113 112 98 97 95 85 83 84 91 97 94 109 119 132 146 157 122 99 89 60 68 293 295 279 274 271 233 261 253 251 246 263 261 261 287 302 308 308 313 330 332 335 328 325 326 337 345 342 340 340 343 347 351 350 352 349 344 343 341 343 348 1 3 6
232 224 226 226 229 240 253 248 242 215 221 227 233 229 243 249 227 176 198 248 305 74 93 99 99 82 78 95 94 93 94 86 90 94 112 134 154 198 255 26 334 339 320 290 303 298 295 290 260 296 289 281 274 288 293 293 296 301 307 314 315 321 321 321 317 317 326 336 334 333 336 340 345 347 350 350 349 342 339 338 339 345 353 1 359
225 231 225 228 227 231 243 246 247 249 244 247 250 239 235 246 274 270 228 235 240 291 40 76 95 322 3 40 75 88 91 86 90 84 88 108 133 181 194 235 292 289 273 286 291 287 284 294 276 279 292 289 289 288 289 288 287 292 296 303 307 307 307 308 306 304 310 326 329 330 333 339 342 345 347 348 347 342 338 336 339 340 346 355 359
220 226 236 232 232 233 232 237 241 250 254 261 266 260 248 240 251 260 271 249 262 286 5 64 65 262 306 356 24 50 83 78 101 103 102 82 153 155 172 195 233 247 253 254 268 275 283 291 293 269 269 286 271 279 285 290 293 290 291 295 290 298 303 297 306 308 310 317 321 324 332 338 345 348 349 349 349 347 344 341 341 341 343 347 351
222 nan 231 238 238 237 239 242 242 244 253 261 265 264 255 233 234 249 256 261 255 257 261 323 4 320 346 305 304 305 338 46 107 185 236 228 235 231 254 244 235 259 262 265 269 275 282 285 281 292 287 278 291 285 284 293 295 307 314 294 294 303 303 315 319 313 317 329 343 346 343 344 343 345 354 356 354 353 351 350 352 351 344 346 349
259 238 nan 242 243 249 248 250 252 252 255 255 257 260 259 254 244 239 245 251 258 253 247 247 247 245 249 248 249 262 291 272 269 243 258 257 253 250 255 260 259 266 272 269 270 280 283 283 292 292 286 291 272 287 275 266 266 264 305 315 323 320 325 314 320 324 325 331 337 338 335 336 343 348 351 354 356 355 353 354 359 356 351 349 349
279 278 nan 255 258 256 260 260 256 256 262 265 261 261 259 258 257 244 246 261 266 266 265 263 262 254 238 236 232 225 242 9 11 301 274 276 261 268 252 263 270 280 275 271 283 285 280 283 278 274 273 270 282 282 261 273 328 350 313 294 309 325 328 317 312 315 320 329 336 330 328 333 335 339 335 339 347 345 345 348 354 4 360 354 352
229 267 286 nan 279 280 272 269 267 261 256 255 275 312 291 267 259 249 243 247 257 265 271 273 273 281 292 272 263 10 20 22 26 29 37 45 39 293 276 279 290 288 285 283 291 294 296 294 296 289 280 285 290 299 302 301 304 288 280 290 298 310 289 297 299 304 316 317 317 321 328 321 329 329 325 340 340 336 332 336 351 355 359 358 355
232 225 250 288 nan 293 294 287 284 275 264 260 299 307 317 321 275 256 242 231 235 244 255 261 262 271 270 277 267 266 317 351 359 15 21 33 37 41 8 322 308 298 281 286 286 285 290 297 283 279 286 286 291 293 295 297 287 290 291 287 300 291 296 299 299 288 296 310 314 312 310 313 320 325 327 335 334 325 326 337 350 353 357 356 356
239 235 228 234 nan nan 291 297 295 288 277 286 300 306 312 313 290 255 243 231 223 224 225 236 243 246 251 256 255 258 254 257 260 268 319 17 16 11 14 347 329 331 311 294 286 272 271 276 274 281 277 287 288 285 283 278 288 279 282 286 288 288 288 291 292 296 298 302 313 309 312 301 313 318 315 326 327 322 328 340 343 349 350 351 353
240 239 233 229 224 nan nan 281 288 291 284 296 305 307 309 311 307 271 237 238 227 220 222 224 228 234 237 238 237 239 240 241 241 259 270 275 299 344 338 345 340 317 305 306 297 287 277 275 280 279 287 280 281 285 284 281 281 284 278 280 284 285 285 284 289 288 293 299 303 309 310 305 308 316 318 319 320 318 323 332 339 343 345 345 350
240 241 241 234 230 229 227 231 245 265 275 285 307 308 307 311 310 289 245 243 241 233 230 228 228 230 234 237 235 232 233 232 233 240 249 255 257 262 261 256 248 239 246 270 274 272 272 277 280 284 282 278 288 285 284 278 281 287 288 288 283 282 283 292 295 297 296 297 308 308 306 304 306 313 319 320 316 314 315 324 333 335 338 343 347
235 243 242 240 239 235 232 233 233 233 240 268 285 297 300 306 308 300 273 259 248 243 240 236 236 237 237 238 239 239 237 237 235 235 244 249 254 255 253 251 252 253 256 258 266 270 nan nan 273 278 281 282 288 290 282 282 287 289 291 294 291 290 290 287 284 292 295 304 307 305 318 311 306 312 321 321 316 315 306 311 323 329 336 339 342
239 237 233 236 235 233 233 233 229 225 230 234 246 264 280 282 294 nan 276 274 266 256 252 247 244 242 242 242 242 241 243 245 246 244 242 250 252 256 259 257 253 251 253 265 276 278 278 280 nan nan nan nan nan nan nan 298 293 289 285 276 275 282 288 293 304 300 306 306 309 310 311 315 312 316 318 315 311 318 304 298 316 328 332 334 338
246 243 241 238 236 231 230 232 230 226 221 218 230 249 251 254 252 249 253 257 259 259 256 255 253 251 250 249 246 243 242 244 249 257 252 251 249 254 259 262 262 260 259 261 277 293 296 300 308 316 324 329 333 336 nan nan nan nan 279 281 290 294 298 303 304 303 313 307 303 312 317 321 315 313 314 309 313 315 313 312 306 324 329 331 332
244 248 250 246 243 241 241 242 243 234 225 221 215 223 238 239 244 245 246 248 248 251 250 248 247 nan 250 260 260 254 251 247 249 253 254 252 245 245 250 255 259 265 266 266 265 272 292 304 312 315 305 293 289 286 294 307 315 nan nan nan nan 296 304 308 309 310 302 296 302 307 312 327 309 305 306 304 300 304 313 309 306 308 318 320 324
246 246 250 253 250 246 246 248 247 242 237 232 226 219 218 229 242 243 240 237 235 239 245 246 245 243 242 243 250 254 255 256 nan 260 260 261 254 250 248 248 247 253 265 269 270 268 271 274 276 280 284 303 304 300 303 324 318 301 301 308 303 304 312 313 310 300 291 293 298 304 320 319 308 308 306 293 296 296 295 303 304 304 308 308 311